P/2010 J3 ( McMillan )

Japanese version
Home page
Updated on February 10, 2013

---------------------------------------------------------------------

* Profile

Discovery Date May 12, 2010
Magnitude 17.8 mag
Discoverer R. S. McMillan (Spacewatch)

* Pictures

* Orbital Elements

Epoch 2010 Sept. 1.0 TT = JDT 2455440.5
T 2010 Aug. 23.48044 TT                                 MPC
q   2.4550985            (2000.0)            P               Q
n   0.03659787     Peri.  157.31834     -0.09505176     +0.97093378
a   8.9846025      Node   106.66061     -0.94488859     -0.01855149
e   0.7267438      Incl.   13.25532     -0.31329015     -0.23862825
P  26.9
From 493 observations 2010 Feb. 3-2011 Sept. 20, mean residual 0".5.

* Finding Charts

* Magnitudes Graph

        m1 = 11.8 + 5 log d + 10.0 log r

---------------------------------------------------------------------

The orbital elements are published on M.P.E.C. 2013-A29.
The charts are made with StellaNavigator Ver.8 (AstroArts).
The magnitudes graphs are made with Comet for Windows.

---------------------------------------------------------------------

Copyright(C) Seiichi Yoshida (comet@aerith.net). All rights reserved.